owner,sensor,date,latitude,longitude,air_temperature,qcFlag 
DISL,ioos:station:DISL:KATA:1,2019-10-01T00:56:00Z,30.2583,-88.2131,28.23,11111222 
DISL,ioos:station:DISL:KATA:1,2019-10-01T01:56:00Z,30.2583,-88.2131,28.09,11111222 
DISL,ioos:station:DISL:KATA:1,2019-10-01T02:56:00Z,30.2583,-88.2131,27.96,11111222 
DISL,ioos:station:DISL:KATA:1,2019-10-01T03:56:00Z,30.2583,-88.2131,27.99,11111222 
DISL,ioos:station:DISL:KATA:1,2019-10-01T04:56:00Z,30.2583,-88.2131,27.82,11111222 
DISL,ioos:station:DISL:KATA:1,2019-10-01T05:56:00Z,30.2583,-88.2131,27.68,11111222 
DISL,ioos:station:DISL:KATA:1,2019-10-01T06:56:00Z,30.2583,-88.2131,27.86,11111222 
DISL,ioos:station:DISL:KATA:1,2019-10-01T07:56:00Z,30.2583,-88.2131,27.62,11111222 
DISL,ioos:station:DISL:KATA:1,2019-10-01T08:56:00Z,30.2583,-88.2131,27.65,11111222 
DISL,ioos:station:DISL:KATA:1,2019-10-01T09:56:00Z,30.2583,-88.2131,27.55,11111222 
DISL,ioos:station:DISL:KATA:1,2019-10-01T10:56:00Z,30.2583,-88.2131,26.87,11111222 
DISL,ioos:station:DISL:KATA:1,2019-10-01T11:56:00Z,30.2583,-88.2131,26.77,11111222 
DISL,ioos:station:DISL:KATA:1,2019-10-01T12:56:00Z,30.2583,-88.2131,26.46,11111222 
DISL,ioos:station:DISL:KATA:1,2019-10-01T13:56:00Z,30.2583,-88.2131,26.77,11111222 
DISL,ioos:station:DISL:KATA:1,2019-10-01T14:56:00Z,30.2583,-88.2131,28.62,11111222 
DISL,ioos:station:DISL:KATA:1,2019-10-01T15:56:00Z,30.2583,-88.2131,29.66,11111222 
DISL,ioos:station:DISL:KATA:1,2019-10-01T16:56:00Z,30.2583,-88.2131,29.53,11111222 
DISL,ioos:station:DISL:KATA:1,2019-10-01T17:56:00Z,30.2583,-88.2131,30.17,11111222 
DISL,ioos:station:DISL:KATA:1,2019-10-01T18:56:00Z,30.2583,-88.2131,30.75,11111222 
DISL,ioos:station:DISL:KATA:1,2019-10-01T19:56:00Z,30.2583,-88.2131,30.75,11111222 
DISL,ioos:station:DISL:KATA:1,2019-10-01T20:56:00Z,30.2583,-88.2131,30.14,11111222 
DISL,ioos:station:DISL:KATA:1,2019-10-01T21:56:00Z,30.2583,-88.2131,29.49,11111222 
DISL,ioos:station:DISL:KATA:1,2019-10-01T22:56:00Z,30.2583,-88.2131,29.46,11111222 
DISL,ioos:station:DISL:KATA:1,2019-10-01T23:56:00Z,30.2583,-88.2131,29.0,11111222 
DISL,ioos:station:DISL:KATA:1,2019-10-02T00:56:00Z,30.2583,-88.2131,28.67,11111222 
DISL,ioos:station:DISL:KATA:1,2019-10-02T01:56:00Z,30.2583,-88.2131,28.57,11111222 
DISL,ioos:station:DISL:KATA:1,2019-10-02T02:56:00Z,30.2583,-88.2131,28.57,11111222 
DISL,ioos:station:DISL:KATA:1,2019-10-02T03:56:00Z,30.2583,-88.2131,28.36,11111222 
DISL,ioos:station:DISL:KATA:1,2019-10-02T05:57:00Z,30.2583,-88.2131,28.19,11111222 
DISL,ioos:station:DISL:KATA:1,2019-10-02T06:57:00Z,30.2583,-88.2131,28.06,11111222 
DISL,ioos:station:DISL:KATA:1,2019-10-02T07:57:00Z,30.2583,-88.2131,28.06,11111222 
DISL,ioos:station:DISL:KATA:1,2019-10-02T08:57:00Z,30.2583,-88.2131,28.06,11111222 
DISL,ioos:station:DISL:KATA:1,2019-10-02T09:57:00Z,30.2583,-88.2131,27.92,11111222 
DISL,ioos:station:DISL:KATA:1,2019-10-02T10:57:00Z,30.2583,-88.2131,27.31,11111222 
DISL,ioos:station:DISL:KATA:1,2019-10-02T11:57:00Z,30.2583,-88.2131,27.51,11111222 
DISL,ioos:station:DISL:KATA:1,2019-10-02T12:57:00Z,30.2583,-88.2131,27.82,11111222 
DISL,ioos:station:DISL:KATA:1,2019-10-02T13:57:00Z,30.2583,-88.2131,27.61,11111222 
DISL,ioos:station:DISL:KATA:1,2019-10-02T14:57:00Z,30.2583,-88.2131,28.21,11111222 
DISL,ioos:station:DISL:KATA:1,2019-10-02T15:57:00Z,30.2583,-88.2131,27.93,11111222 
DISL,ioos:station:DISL:KATA:1,2019-10-02T16:57:00Z,30.2583,-88.2131,28.24,11111222 
DISL,ioos:station:DISL:KATA:1,2019-10-02T17:57:00Z,30.2583,-88.2131,28.85,11111222 
DISL,ioos:station:DISL:KATA:1,2019-10-02T18:57:00Z,30.2583,-88.2131,28.51,11111222 
DISL,ioos:station:DISL:KATA:1,2019-10-02T19:57:00Z,30.2583,-88.2131,28.44,11111222 
DISL,ioos:station:DISL:KATA:1,2019-10-02T20:57:00Z,30.2583,-88.2131,28.21,11111222 
DISL,ioos:station:DISL:KATA:1,2019-10-02T21:57:00Z,30.2583,-88.2131,28.35,11111222 
DISL,ioos:station:DISL:KATA:1,2019-10-02T22:57:00Z,30.2583,-88.2131,28.45,11111222 
DISL,ioos:station:DISL:KATA:1,2019-10-02T23:57:00Z,30.2583,-88.2131,28.33,11111222 
DISL,ioos:station:DISL:KATA:1,2019-10-03T00:57:00Z,30.2583,-88.2131,28.53,11111222 
DISL,ioos:station:DISL:KATA:1,2019-10-03T01:57:00Z,30.2583,-88.2131,28.26,11111222 
DISL,ioos:station:DISL:KATA:1,2019-10-03T02:57:00Z,30.2583,-88.2131,28.57,11111222 
DISL,ioos:station:DISL:KATA:1,2019-10-03T03:57:00Z,30.2583,-88.2131,28.5,11111222 
DISL,ioos:station:DISL:KATA:1,2019-10-03T04:57:00Z,30.2583,-88.2131,28.4,11111222 
DISL,ioos:station:DISL:KATA:1,2019-10-03T05:57:00Z,30.2583,-88.2131,28.26,11111222 
DISL,ioos:station:DISL:KATA:1,2019-10-03T06:57:00Z,30.2583,-88.2131,28.23,11111222 
DISL,ioos:station:DISL:KATA:1,2019-10-03T07:57:00Z,30.2583,-88.2131,28.09,11111222 
DISL,ioos:station:DISL:KATA:1,2019-10-03T08:57:00Z,30.2583,-88.2131,28.09,11111222 
DISL,ioos:station:DISL:KATA:1,2019-10-03T09:57:00Z,30.2583,-88.2131,28.4,11111222 
DISL,ioos:station:DISL:KATA:1,2019-10-03T10:57:00Z,30.2583,-88.2131,27.18,11111222 
DISL,ioos:station:DISL:KATA:1,2019-10-03T11:57:00Z,30.2583,-88.2131,27.18,11111222 
DISL,ioos:station:DISL:KATA:1,2019-10-03T12:57:00Z,30.2583,-88.2131,27.18,11111222 
DISL,ioos:station:DISL:KATA:1,2019-10-03T13:57:00Z,30.2583,-88.2131,27.55,11111222 
DISL,ioos:station:DISL:KATA:1,2019-10-03T14:57:00Z,30.2583,-88.2131,28.24,11111222 
DISL,ioos:station:DISL:KATA:1,2019-10-03T15:57:00Z,30.2583,-88.2131,29.19,11111222 
DISL,ioos:station:DISL:KATA:1,2019-10-03T16:57:00Z,30.2583,-88.2131,29.59,11111222 
DISL,ioos:station:DISL:KATA:1,2019-10-03T17:57:00Z,30.2583,-88.2131,30.5,11111222 
DISL,ioos:station:DISL:KATA:1,2019-10-03T18:57:00Z,30.2583,-88.2131,29.93,11111222 
DISL,ioos:station:DISL:KATA:1,2019-10-03T19:57:00Z,30.2583,-88.2131,29.76,11111222 
DISL,ioos:station:DISL:KATA:1,2019-10-03T20:57:00Z,30.2583,-88.2131,29.49,11111222 
DISL,ioos:station:DISL:KATA:1,2019-10-03T21:57:00Z,30.2583,-88.2131,29.56,11111222 
DISL,ioos:station:DISL:KATA:1,2019-10-03T22:57:00Z,30.2583,-88.2131,29.26,11111222 
DISL,ioos:station:DISL:KATA:1,2019-10-03T23:57:00Z,30.2583,-88.2131,29.0,11111222 
DISL,ioos:station:DISL:KATA:1,2019-10-04T00:57:00Z,30.2583,-88.2131,29.04,11111222 
DISL,ioos:station:DISL:KATA:1,2019-10-04T01:57:00Z,30.2583,-88.2131,28.84,11111222 
DISL,ioos:station:DISL:KATA:1,2019-10-04T02:57:00Z,30.2583,-88.2131,28.74,11111222 
DISL,ioos:station:DISL:KATA:1,2019-10-04T03:57:00Z,30.2583,-88.2131,28.67,11111222 
DISL,ioos:station:DISL:KATA:1,2019-10-04T04:57:00Z,30.2583,-88.2131,28.5,11111222 
DISL,ioos:station:DISL:KATA:1,2019-10-04T05:57:00Z,30.2583,-88.2131,28.36,11111222 
DISL,ioos:station:DISL:KATA:1,2019-10-04T06:57:00Z,30.2583,-88.2131,27.99,11111222 
DISL,ioos:station:DISL:KATA:1,2019-10-04T07:57:00Z,30.2583,-88.2131,28.06,11111222 
DISL,ioos:station:DISL:KATA:1,2019-10-04T08:57:00Z,30.2583,-88.2131,28.12,11111222 
DISL,ioos:station:DISL:KATA:1,2019-10-04T09:57:00Z,30.2583,-88.2131,28.19,11111222 
DISL,ioos:station:DISL:KATA:1,2019-10-04T10:56:00Z,30.2583,-88.2131,28.09,11111222 
DISL,ioos:station:DISL:KATA:1,2019-10-04T11:56:00Z,30.2583,-88.2131,27.51,11111222 
DISL,ioos:station:DISL:KATA:1,2019-10-04T12:56:00Z,30.2583,-88.2131,28.33,11111222 
DISL,ioos:station:DISL:KATA:1,2019-10-04T13:56:00Z,30.2583,-88.2131,29.57,11111222 
DISL,ioos:station:DISL:KATA:1,2019-10-04T14:56:00Z,30.2583,-88.2131,30.0,11111222 
DISL,ioos:station:DISL:KATA:1,2019-10-04T15:56:00Z,30.2583,-88.2131,30.34,11111222 
DISL,ioos:station:DISL:KATA:1,2019-10-04T16:56:00Z,30.2583,-88.2131,30.96,11111222 
DISL,ioos:station:DISL:KATA:1,2019-10-04T17:56:00Z,30.2583,-88.2131,29.48,11111222 
DISL,ioos:station:DISL:KATA:1,2019-10-04T18:56:00Z,30.2583,-88.2131,29.36,11111222 
DISL,ioos:station:DISL:KATA:1,2019-10-04T19:56:00Z,30.2583,-88.2131,29.15,11111222 
DISL,ioos:station:DISL:KATA:1,2019-10-04T20:56:00Z,30.2583,-88.2131,29.16,11111222 
DISL,ioos:station:DISL:KATA:1,2019-10-04T21:56:00Z,30.2583,-88.2131,29.06,11111222 
DISL,ioos:station:DISL:KATA:1,2019-10-04T22:56:00Z,30.2583,-88.2131,28.93,11111222 
DISL,ioos:station:DISL:KATA:1,2019-10-04T23:56:00Z,30.2583,-88.2131,28.57,11111222 
DISL,ioos:station:DISL:KATA:1,2019-10-05T00:56:00Z,30.2583,-88.2131,28.5,11111222 
DISL,ioos:station:DISL:KATA:1,2019-10-05T01:56:00Z,30.2583,-88.2131,28.5,11111222 
DISL,ioos:station:DISL:KATA:1,2019-10-05T02:56:00Z,30.2583,-88.2131,28.09,11111222 
DISL,ioos:station:DISL:KATA:1,2019-10-05T03:56:00Z,30.2583,-88.2131,27.04,11111222 
DISL,ioos:station:DISL:KATA:1,2019-10-05T04:56:00Z,30.2583,-88.2131,25.25,11111222 
DISL,ioos:station:DISL:KATA:1,2019-10-05T05:56:00Z,30.2583,-88.2131,25.43,11111222 
DISL,ioos:station:DISL:KATA:1,2019-10-05T06:56:00Z,30.2583,-88.2131,25.67,11111222 
DISL,ioos:station:DISL:KATA:1,2019-10-05T07:56:00Z,30.2583,-88.2131,26.15,11111222 
DISL,ioos:station:DISL:KATA:1,2019-10-05T08:56:00Z,30.2583,-88.2131,26.08,11111222 
DISL,ioos:station:DISL:KATA:1,2019-10-05T09:56:00Z,30.2583,-88.2131,26.76,11111222 
DISL,ioos:station:DISL:KATA:1,2019-10-05T10:56:00Z,30.2583,-88.2131,26.14,11111222 
DISL,ioos:station:DISL:KATA:1,2019-10-05T11:56:00Z,30.2583,-88.2131,26.27,11111222 
DISL,ioos:station:DISL:KATA:1,2019-10-05T12:56:00Z,30.2583,-88.2131,27.11,11111222 
DISL,ioos:station:DISL:KATA:1,2019-10-05T13:56:00Z,30.2583,-88.2131,27.55,11111222 
DISL,ioos:station:DISL:KATA:1,2019-10-05T14:56:00Z,30.2583,-88.2131,27.61,11111222 
DISL,ioos:station:DISL:KATA:1,2019-10-05T15:56:00Z,30.2583,-88.2131,28.17,11111222 
DISL,ioos:station:DISL:KATA:1,2019-10-05T16:56:00Z,30.2583,-88.2131,28.27,11111222 
DISL,ioos:station:DISL:KATA:1,2019-10-05T17:56:00Z,30.2583,-88.2131,29.12,11111222 
DISL,ioos:station:DISL:KATA:1,2019-10-05T18:56:00Z,30.2583,-88.2131,28.68,11111222 
DISL,ioos:station:DISL:KATA:1,2019-10-05T19:56:00Z,30.2583,-88.2131,28.79,11111222 
DISL,ioos:station:DISL:KATA:1,2019-10-05T20:56:00Z,30.2583,-88.2131,28.52,11111222 
DISL,ioos:station:DISL:KATA:1,2019-10-05T21:56:00Z,30.2583,-88.2131,28.59,11111222 
DISL,ioos:station:DISL:KATA:1,2019-10-05T22:56:00Z,30.2583,-88.2131,28.39,11111222 
DISL,ioos:station:DISL:KATA:1,2019-10-05T23:56:00Z,30.2583,-88.2131,28.36,11111222 
DISL,ioos:station:DISL:KATA:1,2019-10-06T00:56:00Z,30.2583,-88.2131,28.29,11111222 
DISL,ioos:station:DISL:KATA:1,2019-10-06T01:56:00Z,30.2583,-88.2131,28.23,11111222 
DISL,ioos:station:DISL:KATA:1,2019-10-06T02:56:00Z,30.2583,-88.2131,28.16,11111222 
DISL,ioos:station:DISL:KATA:1,2019-10-06T03:56:00Z,30.2583,-88.2131,28.06,11111222 
DISL,ioos:station:DISL:KATA:1,2019-10-06T04:56:00Z,30.2583,-88.2131,28.16,11111222 
DISL,ioos:station:DISL:KATA:1,2019-10-06T05:56:00Z,30.2583,-88.2131,27.85,11111222 
DISL,ioos:station:DISL:KATA:1,2019-10-06T06:56:00Z,30.2583,-88.2131,27.55,11111222 
DISL,ioos:station:DISL:KATA:1,2019-10-06T07:56:00Z,30.2583,-88.2131,27.38,11111222 
DISL,ioos:station:DISL:KATA:1,2019-10-06T08:56:00Z,30.2583,-88.2131,27.38,11111222 
DISL,ioos:station:DISL:KATA:1,2019-10-06T09:56:00Z,30.2583,-88.2131,26.84,11111222 
DISL,ioos:station:DISL:KATA:1,2019-10-06T10:56:00Z,30.2583,-88.2131,26.9,11111222 
DISL,ioos:station:DISL:KATA:1,2019-10-06T11:56:00Z,30.2583,-88.2131,25.28,11111222 
DISL,ioos:station:DISL:KATA:1,2019-10-06T12:56:00Z,30.2583,-88.2131,26.04,11111222 
DISL,ioos:station:DISL:KATA:1,2019-10-06T13:56:00Z,30.2583,-88.2131,25.43,11111222 
DISL,ioos:station:DISL:KATA:1,2019-10-06T14:56:00Z,30.2583,-88.2131,26.06,11111222 
DISL,ioos:station:DISL:KATA:1,2019-10-06T15:56:00Z,30.2583,-88.2131,26.36,11111222 
DISL,ioos:station:DISL:KATA:1,2019-10-06T16:56:00Z,30.2583,-88.2131,25.82,11111222 
DISL,ioos:station:DISL:KATA:1,2019-10-06T17:56:00Z,30.2583,-88.2131,26.56,11111222 
DISL,ioos:station:DISL:KATA:1,2019-10-06T18:56:00Z,30.2583,-88.2131,26.7,11111222 
DISL,ioos:station:DISL:KATA:1,2019-10-06T19:56:00Z,30.2583,-88.2131,27.01,11111222 
DISL,ioos:station:DISL:KATA:1,2019-10-06T20:56:00Z,30.2583,-88.2131,26.97,11111222 
DISL,ioos:station:DISL:KATA:1,2019-10-06T21:56:00Z,30.2583,-88.2131,26.99,11111222 
DISL,ioos:station:DISL:KATA:1,2019-10-06T22:56:00Z,30.2583,-88.2131,27.48,11111222 
DISL,ioos:station:DISL:KATA:1,2019-10-06T23:56:00Z,30.2583,-88.2131,27.58,11111222 
DISL,ioos:station:DISL:KATA:1,2019-10-07T00:56:00Z,30.2583,-88.2131,27.72,11111222 
DISL,ioos:station:DISL:KATA:1,2019-10-07T01:56:00Z,30.2583,-88.2131,28.26,11111222 
DISL,ioos:station:DISL:KATA:1,2019-10-07T02:56:00Z,30.2583,-88.2131,28.12,11111222 
DISL,ioos:station:DISL:KATA:1,2019-10-07T03:56:00Z,30.2583,-88.2131,27.51,11111222 
DISL,ioos:station:DISL:KATA:1,2019-10-07T04:56:00Z,30.2583,-88.2131,27.72,11111222 
DISL,ioos:station:DISL:KATA:1,2019-10-07T05:56:00Z,30.2583,-88.2131,27.41,11111222 
DISL,ioos:station:DISL:KATA:1,2019-10-07T06:56:00Z,30.2583,-88.2131,26.29,11111222 
DISL,ioos:station:DISL:KATA:1,2019-10-07T07:56:00Z,30.2583,-88.2131,26.37,11111222 
DISL,ioos:station:DISL:KATA:1,2019-10-07T08:56:00Z,30.2583,-88.2131,25.13,11111222 
DISL,ioos:station:DISL:KATA:1,2019-10-07T09:56:00Z,30.2583,-88.2131,26.15,11111222 
DISL,ioos:station:DISL:KATA:1,2019-10-07T10:56:00Z,30.2583,-88.2131,25.67,11111222 
DISL,ioos:station:DISL:KATA:1,2019-10-07T11:56:00Z,30.2583,-88.2131,25.67,11111222 
DISL,ioos:station:DISL:KATA:1,2019-10-07T12:56:00Z,30.2583,-88.2131,25.63,11111222 
DISL,ioos:station:DISL:KATA:1,2019-10-07T18:56:00Z,30.2583,-88.2131,27.47,11111222 
DISL,ioos:station:DISL:KATA:1,2019-10-07T19:56:00Z,30.2583,-88.2131,28.12,11111222 
DISL,ioos:station:DISL:KATA:1,2019-10-07T20:56:00Z,30.2583,-88.2131,29.31,11111222 
DISL,ioos:station:DISL:KATA:1,2019-10-07T21:56:00Z,30.2583,-88.2131,27.72,11111222 
DISL,ioos:station:DISL:KATA:1,2019-10-07T22:56:00Z,30.2583,-88.2131,27.31,11111222 
DISL,ioos:station:DISL:KATA:1,2019-10-07T23:56:00Z,30.2583,-88.2131,27.11,11111222 
DISL,ioos:station:DISL:KATA:1,2019-10-08T00:56:00Z,30.2583,-88.2131,27.21,11111222 
DISL,ioos:station:DISL:KATA:1,2019-10-08T01:56:00Z,30.2583,-88.2131,26.94,11111222 
DISL,ioos:station:DISL:KATA:1,2019-10-08T02:56:00Z,30.2583,-88.2131,26.33,11111222 
DISL,ioos:station:DISL:KATA:1,2019-10-08T03:56:00Z,30.2583,-88.2131,25.53,11111222 
DISL,ioos:station:DISL:KATA:1,2019-10-08T04:56:00Z,30.2583,-88.2131,25.47,11111222 
DISL,ioos:station:DISL:KATA:1,2019-10-08T05:56:00Z,30.2583,-88.2131,24.38,11111222 
DISL,ioos:station:DISL:KATA:1,2019-10-08T06:56:00Z,30.2583,-88.2131,23.67,11111222 
DISL,ioos:station:DISL:KATA:1,2019-10-08T07:56:00Z,30.2583,-88.2131,23.4,11111222 
DISL,ioos:station:DISL:KATA:1,2019-10-08T08:56:00Z,30.2583,-88.2131,23.26,11111222 
DISL,ioos:station:DISL:KATA:1,2019-10-08T09:56:00Z,30.2583,-88.2131,22.82,11111222 
DISL,ioos:station:DISL:KATA:1,2019-10-08T10:56:00Z,30.2583,-88.2131,22.58,11111222 
DISL,ioos:station:DISL:KATA:1,2019-10-08T11:56:00Z,30.2583,-88.2131,22.08,11111222 
DISL,ioos:station:DISL:KATA:1,2019-10-08T12:56:00Z,30.2583,-88.2131,21.77,11111222 
DISL,ioos:station:DISL:KATA:1,2019-10-08T13:56:00Z,30.2583,-88.2131,22.18,11111222 
DISL,ioos:station:DISL:KATA:1,2019-10-08T14:56:00Z,30.2583,-88.2131,22.89,11111222 
DISL,ioos:station:DISL:KATA:1,2019-10-08T15:56:00Z,30.2583,-88.2131,23.99,11111222 
DISL,ioos:station:DISL:KATA:1,2019-10-08T16:56:00Z,30.2583,-88.2131,25.01,11111222 
DISL,ioos:station:DISL:KATA:1,2019-10-08T17:56:00Z,30.2583,-88.2131,25.82,11111222 
DISL,ioos:station:DISL:KATA:1,2019-10-08T19:26:00Z,30.2583,-88.2131,27.44,11111222 
DISL,ioos:station:DISL:KATA:1,2019-10-08T19:56:00Z,30.2583,-88.2131,27.71,11111222 
DISL,ioos:station:DISL:KATA:1,2019-10-08T20:56:00Z,30.2583,-88.2131,27.74,11111222 
DISL,ioos:station:DISL:KATA:1,2019-10-08T21:56:00Z,30.2583,-88.2131,27.78,11111222 
DISL,ioos:station:DISL:KATA:1,2019-10-08T22:56:00Z,30.2583,-88.2131,27.62,11111222 
DISL,ioos:station:DISL:KATA:1,2019-10-08T23:56:00Z,30.2583,-88.2131,27.58,11111222 
DISL,ioos:station:DISL:KATA:1,2019-10-09T00:56:00Z,30.2583,-88.2131,27.45,11111222 
DISL,ioos:station:DISL:KATA:1,2019-10-09T01:56:00Z,30.2583,-88.2131,27.41,11111222 
DISL,ioos:station:DISL:KATA:1,2019-10-09T02:56:00Z,30.2583,-88.2131,26.7,11111222 
DISL,ioos:station:DISL:KATA:1,2019-10-09T03:56:00Z,30.2583,-88.2131,26.03,11111222 
DISL,ioos:station:DISL:KATA:1,2019-10-09T04:56:00Z,30.2583,-88.2131,25.8,11111222 
DISL,ioos:station:DISL:KATA:1,2019-10-09T05:56:00Z,30.2583,-88.2131,25.16,11111222 
DISL,ioos:station:DISL:KATA:1,2019-10-09T06:56:00Z,30.2583,-88.2131,24.42,11111222 
DISL,ioos:station:DISL:KATA:1,2019-10-09T07:56:00Z,30.2583,-88.2131,24.08,11111222 
DISL,ioos:station:DISL:KATA:1,2019-10-09T08:56:00Z,30.2583,-88.2131,23.3,11111222 
DISL,ioos:station:DISL:KATA:1,2019-10-09T09:56:00Z,30.2583,-88.2131,22.79,11111222 
DISL,ioos:station:DISL:KATA:1,2019-10-09T10:56:00Z,30.2583,-88.2131,22.65,11111222 
DISL,ioos:station:DISL:KATA:1,2019-10-09T11:56:00Z,30.2583,-88.2131,22.79,11111222 
DISL,ioos:station:DISL:KATA:1,2019-10-09T12:56:00Z,30.2583,-88.2131,23.26,11111222 
DISL,ioos:station:DISL:KATA:1,2019-10-09T13:56:00Z,30.2583,-88.2131,24.18,11111222 
DISL,ioos:station:DISL:KATA:1,2019-10-09T14:56:00Z,30.2583,-88.2131,24.23,11111222 
DISL,ioos:station:DISL:KATA:1,2019-10-09T15:56:00Z,30.2583,-88.2131,24.7,11111222 
DISL,ioos:station:DISL:KATA:1,2019-10-09T16:56:00Z,30.2583,-88.2131,25.41,11111222 
DISL,ioos:station:DISL:KATA:1,2019-10-09T17:56:00Z,30.2583,-88.2131,26.5,11111222 
DISL,ioos:station:DISL:KATA:1,2019-10-09T18:56:00Z,30.2583,-88.2131,28.08,11111222 
DISL,ioos:station:DISL:KATA:1,2019-10-09T19:56:00Z,30.2583,-88.2131,28.01,11111222 
DISL,ioos:station:DISL:KATA:1,2019-10-09T20:56:00Z,30.2583,-88.2131,27.78,11111222 
DISL,ioos:station:DISL:KATA:1,2019-10-09T21:56:00Z,30.2583,-88.2131,27.62,11111222 
DISL,ioos:station:DISL:KATA:1,2019-10-09T22:56:00Z,30.2583,-88.2131,27.62,11111222 
DISL,ioos:station:DISL:KATA:1,2019-10-09T23:56:00Z,30.2583,-88.2131,27.55,11111222 
DISL,ioos:station:DISL:KATA:1,2019-10-10T02:56:00Z,30.2583,-88.2131,27.55,11111222 
DISL,ioos:station:DISL:KATA:1,2019-10-10T03:56:00Z,30.2583,-88.2131,27.51,11111222 
DISL,ioos:station:DISL:KATA:1,2019-10-10T04:56:00Z,30.2583,-88.2131,27.48,11111222 
DISL,ioos:station:DISL:KATA:1,2019-10-10T05:56:00Z,30.2583,-88.2131,27.41,11111222 
DISL,ioos:station:DISL:KATA:1,2019-10-10T06:56:00Z,30.2583,-88.2131,27.55,11111222 
DISL,ioos:station:DISL:KATA:1,2019-10-10T07:56:00Z,30.2583,-88.2131,27.34,11111222 
DISL,ioos:station:DISL:KATA:1,2019-10-10T08:56:00Z,30.2583,-88.2131,27.31,11111222 
DISL,ioos:station:DISL:KATA:1,2019-10-10T09:56:00Z,30.2583,-88.2131,27.24,11111222 
DISL,ioos:station:DISL:KATA:1,2019-10-10T10:56:00Z,30.2583,-88.2131,27.31,11111222 
DISL,ioos:station:DISL:KATA:1,2019-10-10T11:56:00Z,30.2583,-88.2131,26.77,11111222 
DISL,ioos:station:DISL:KATA:1,2019-10-10T12:56:00Z,30.2583,-88.2131,26.67,11111222 
DISL,ioos:station:DISL:KATA:1,2019-10-10T13:56:00Z,30.2583,-88.2131,25.11,11111222 
DISL,ioos:station:DISL:KATA:1,2019-10-10T14:56:00Z,30.2583,-88.2131,25.45,11111222 
DISL,ioos:station:DISL:KATA:1,2019-10-10T15:56:00Z,30.2583,-88.2131,25.95,11111222 
DISL,ioos:station:DISL:KATA:1,2019-10-10T16:56:00Z,30.2583,-88.2131,26.33,11111222 
DISL,ioos:station:DISL:KATA:1,2019-10-10T17:56:00Z,30.2583,-88.2131,26.26,11111222 
DISL,ioos:station:DISL:KATA:1,2019-10-10T18:56:00Z,30.2583,-88.2131,26.23,11111222 
DISL,ioos:station:DISL:KATA:1,2019-10-10T19:56:00Z,30.2583,-88.2131,26.4,11111222 
DISL,ioos:station:DISL:KATA:1,2019-10-10T20:56:00Z,30.2583,-88.2131,26.26,11111222 
DISL,ioos:station:DISL:KATA:1,2019-10-10T21:56:00Z,30.2583,-88.2131,26.33,11111222 
DISL,ioos:station:DISL:KATA:1,2019-10-10T22:56:00Z,30.2583,-88.2131,26.5,11111222 
DISL,ioos:station:DISL:KATA:1,2019-10-10T23:56:00Z,30.2583,-88.2131,26.36,11111222 
DISL,ioos:station:DISL:KATA:1,2019-10-11T00:56:00Z,30.2583,-88.2131,26.84,11111222 
DISL,ioos:station:DISL:KATA:1,2019-10-11T01:56:00Z,30.2583,-88.2131,27.14,11111222 
DISL,ioos:station:DISL:KATA:1,2019-10-11T02:56:00Z,30.2583,-88.2131,27.21,11111222 
DISL,ioos:station:DISL:KATA:1,2019-10-11T03:56:00Z,30.2583,-88.2131,26.97,11111222 
DISL,ioos:station:DISL:KATA:1,2019-10-11T04:56:00Z,30.2583,-88.2131,27.08,11111222 
DISL,ioos:station:DISL:KATA:1,2019-10-11T05:56:00Z,30.2583,-88.2131,27.21,11111222 
DISL,ioos:station:DISL:KATA:1,2019-10-11T06:56:00Z,30.2583,-88.2131,27.45,11111222 
DISL,ioos:station:DISL:KATA:1,2019-10-11T07:56:00Z,30.2583,-88.2131,27.58,11111222 
DISL,ioos:station:DISL:KATA:1,2019-10-11T08:56:00Z,30.2583,-88.2131,27.55,11111222 
DISL,ioos:station:DISL:KATA:1,2019-10-11T09:56:00Z,30.2583,-88.2131,27.45,11111222 
DISL,ioos:station:DISL:KATA:1,2019-10-11T10:56:00Z,30.2583,-88.2131,27.34,11111222 
DISL,ioos:station:DISL:KATA:1,2019-10-11T11:56:00Z,30.2583,-88.2131,27.31,11111222 
DISL,ioos:station:DISL:KATA:1,2019-10-11T12:56:00Z,30.2583,-88.2131,27.28,11111222 
DISL,ioos:station:DISL:KATA:1,2019-10-11T13:56:00Z,30.2583,-88.2131,27.34,11111222 
DISL,ioos:station:DISL:KATA:1,2019-10-11T14:56:00Z,30.2583,-88.2131,27.47,11111222 
DISL,ioos:station:DISL:KATA:1,2019-10-11T15:56:00Z,30.2583,-88.2131,27.3,11111222 
DISL,ioos:station:DISL:KATA:1,2019-10-11T16:56:00Z,30.2583,-88.2131,26.99,11111222 
DISL,ioos:station:DISL:KATA:1,2019-10-11T17:56:00Z,30.2583,-88.2131,26.86,11111222 
DISL,ioos:station:DISL:KATA:1,2019-10-11T18:56:00Z,30.2583,-88.2131,26.67,11111222 
DISL,ioos:station:DISL:KATA:1,2019-10-11T19:56:00Z,30.2583,-88.2131,26.43,11111222 
DISL,ioos:station:DISL:KATA:1,2019-10-11T20:56:00Z,30.2583,-88.2131,26.46,11111222 
DISL,ioos:station:DISL:KATA:1,2019-10-11T21:56:00Z,30.2583,-88.2131,26.56,11111222 
DISL,ioos:station:DISL:KATA:1,2019-10-11T22:56:00Z,30.2583,-88.2131,26.7,11111222 
DISL,ioos:station:DISL:KATA:1,2019-10-11T23:56:00Z,30.2583,-88.2131,26.73,11111222 
DISL,ioos:station:DISL:KATA:1,2019-10-12T00:56:00Z,30.2583,-88.2131,26.52,11111222 
DISL,ioos:station:DISL:KATA:1,2019-10-12T01:56:00Z,30.2583,-88.2131,26.52,11111222 
DISL,ioos:station:DISL:KATA:1,2019-10-12T02:56:00Z,30.2583,-88.2131,26.35,11111222 
DISL,ioos:station:DISL:KATA:1,2019-10-12T15:56:00Z,30.2583,-88.2131,19.85,11111222 
DISL,ioos:station:DISL:KATA:1,2019-10-12T16:56:00Z,30.2583,-88.2131,20.42,11111222 
DISL,ioos:station:DISL:KATA:1,2019-10-12T17:56:00Z,30.2583,-88.2131,21.47,11111222 
DISL,ioos:station:DISL:KATA:1,2019-10-12T18:56:00Z,30.2583,-88.2131,21.36,11111222 
DISL,ioos:station:DISL:KATA:1,2019-10-12T19:56:00Z,30.2583,-88.2131,21.7,11111222 
DISL,ioos:station:DISL:KATA:1,2019-10-12T20:56:00Z,30.2583,-88.2131,21.91,11111222 
DISL,ioos:station:DISL:KATA:1,2019-10-12T21:56:00Z,30.2583,-88.2131,21.26,11111222 
DISL,ioos:station:DISL:KATA:1,2019-10-12T22:56:00Z,30.2583,-88.2131,20.59,11111222 
DISL,ioos:station:DISL:KATA:1,2019-10-12T23:56:00Z,30.2583,-88.2131,19.68,11111222 
DISL,ioos:station:DISL:KATA:1,2019-10-13T00:56:00Z,30.2583,-88.2131,18.81,11111222 
DISL,ioos:station:DISL:KATA:1,2019-10-13T01:56:00Z,30.2583,-88.2131,18.33,11111222 
DISL,ioos:station:DISL:KATA:1,2019-10-13T02:56:00Z,30.2583,-88.2131,17.92,11111222 
DISL,ioos:station:DISL:KATA:1,2019-10-13T03:56:00Z,30.2583,-88.2131,17.49,11111222 
DISL,ioos:station:DISL:KATA:1,2019-10-13T04:56:00Z,30.2583,-88.2131,18.51,11111222 
DISL,ioos:station:DISL:KATA:1,2019-10-13T05:56:00Z,30.2583,-88.2131,18.47,11111222 
DISL,ioos:station:DISL:KATA:1,2019-10-13T06:56:00Z,30.2583,-88.2131,19.04,11111222 
DISL,ioos:station:DISL:KATA:1,2019-10-13T07:56:00Z,30.2583,-88.2131,19.59,11111222 
DISL,ioos:station:DISL:KATA:1,2019-10-13T08:56:00Z,30.2583,-88.2131,19.42,11111222 
DISL,ioos:station:DISL:KATA:1,2019-10-13T09:56:00Z,30.2583,-88.2131,18.91,11111222 
DISL,ioos:station:DISL:KATA:1,2019-10-13T10:56:00Z,30.2583,-88.2131,18.16,11111222 
DISL,ioos:station:DISL:KATA:1,2019-10-13T11:56:00Z,30.2583,-88.2131,18.74,11111222 
DISL,ioos:station:DISL:KATA:1,2019-10-13T12:56:00Z,30.2583,-88.2131,18.94,11111222 
DISL,ioos:station:DISL:KATA:1,2019-10-13T13:56:00Z,30.2583,-88.2131,19.82,11111222 
DISL,ioos:station:DISL:KATA:1,2019-10-13T14:56:00Z,30.2583,-88.2131,20.05,11111222 
DISL,ioos:station:DISL:KATA:1,2019-10-13T15:56:00Z,30.2583,-88.2131,20.69,11111222 
DISL,ioos:station:DISL:KATA:1,2019-10-13T16:56:00Z,30.2583,-88.2131,21.7,11111222 